Starlink 5261

operational
NORAD ID: 55276 Int'l Des: 2023-010 Owner: SPXS Country: US Constellation: starlink
LEOCIRCULAR

Starlink 5261について

説明を読み込み中...

リアルタイム位置

3D地球を読み込み中...

次回通過

高度履歴

Altitude vs Time

uPlot chart will show altitude changes over time

軌道要素

1 55276U 23010H 25306.49346032 .00000018 00000-0 92906-5 0 9998
2 55276 69.9990 345.2776 0003132 270.9447 89.1354 14.98325674154217
Epoch: Nov 2, 2025 • Age: 5 hours

現在のステータス

高度 575.0 km
速度 7.58 km/s
衛星直下点 21.30°N, 59.41°E
打ち上げ日 Jan 19, 2023
運用期間 2.7 years
タイプ internet

技術仕様

分類 Payload
質量 305.00 kg
乾燥質量 290.00 kg
総質量 305.00 kg
長さ 0.20 m
直径 2.80 m
スパン 9.00 m
形状 Box + pan
製造者 SPXS
バスタイプ Starlink
フェーズステータス In Orbit
所有者/国 SPXS/US

大規模コンステレーション

Loading constellations...